Back to catalog

SECOR 7

EGRS 7

AliveSciencePO
NORAD 2411·PAYLOAD·🇺🇸 United States

Launched Aug 19, 1966 from Vandenberg Space Force Base

Loading…

Next Passes (next 24 hours)

TLE

FreshSource: Space-Track

Epoch: Sep 14, 2026, 11:18 UTC

1 02411U 66077B   26257.47130134 -.00000017  00000-0 -92418-2 0  9995
2 02411  90.3255 278.4883 0010151 327.2941  32.7281  8.59615434885054

Track SECOR 7 in real time with AllMySat

Download on the App Store